OpenBCM V1.08-5-g2f4a (Linux)

Packet Radio Mailbox

IZ3LSV

[San Dona' di P. JN]

 Login: GUEST





  
LU1HVK > KEP      10.01.20 16:42l 243 Lines 12025 Bytes #999 (0) @ WW
BID : 38595_LU1HVK
Read: GUEST
Subj: TLE 20 10
Path: IZ3LSV<IW0QNL<JH4XSY<N3HYM<IV3BVK<IK5FKA<LU9HGS<LU1HVK
Sent: 200110/1536Z 38595@LU1HVK.2594.CBA.ARG.SA LinBPQ6.0.19

                         _    _   _ _ _   ___     ___  __
                        | |  | | | / | | | \ \   / / |/ /
                        | |  | | | | | |_| |\ \ / /| ' /
                        | |__| |_| | |  _  | \ V / | . \
                        |_____\___/|_|_| |_|  \_/  |_|\_\

     BBS/NODO - CORDOBA (LEONES-FF87UH) - LU1HVK-4 NODO - LU1HVK-3 APRS

+----------------------------------------------------------------------------+
OSCAR 7
1  7530U 74089B   19292.77266385 -.00000035  00000-0  65099-4 0  9992
2  7530 101.7614 259.2404 0012409 108.5306  10.1121 12.53640293 55946
OSCAR 11 (UoSAT 2)
1 14781U 84021B   19292.62646646 +.00000057 +00000-0 +13068-4 0  9993
2 14781 097.6046 311.4870 0006990 277.3315 082.7105 14.83113128895985
OSCAR 19 (LUSAT)
1 20442U 90005G   19292.77401391 +.00000007 +00000-0 +18804-4 0  9993
2 20442 098.6596 234.6235 0012339 142.3522 217.8527 14.32935425553945
EYESAT A
1 22825U 93061C   19292.92078821 -.00000014 +00000-0 +12569-4 0  9991
2 22825 098.9137 284.4287 0008530 007.4854 352.6454 14.30068789359290
ITAMSAT
1 22826U 93061D   19292.75382803 -.00000011 +00000-0 +13707-4 0  9993
2 22826 098.9076 284.2338 0008851 356.2814 003.8301 14.30402948359492
RADIO ROSTO
1 23439U 94085A   19292.97316759 -.00000017 +00000-0 +71114-3 0  9993
2 23439 064.8147 276.7606 0145233 089.1666 272.5895 11.27568409021791
JAS 2
1 24278U 96046B   19292.66635579 +.00000001 +00000-0 +39982-4 0  9994
2 24278 098.5565 069.4972 0349296 281.2446 074.9632 13.53094052144181
TECHSAT 1B
1 25397U 98043D   19292.89201761 +.00000000 +00000-0 +19385-4 0  9997
2 25397 098.6985 231.5912 0002195 061.1827 298.9572 14.23672482105184
ISS (ZARYA)
1 25544U 98067A   19292.96205127  .00000206  00000-0  11592-4 0  9995
2 25544  51.6434 102.5605 0006956 165.1970 329.8063 15.50204656194615
PCSAT
1 26931U 01043C   19292.82903040 -.00000021 +00000-0 +23581-4 0  9995
2 26931 067.0526 045.9223 0007466 267.8299 092.1948 14.30555604942517
SAUDISAT 1C
1 27607U 02058C   19292.76021571 -.00000002 +00000-0 +20539-4 0  9995
2 27607 064.5567 033.3262 0074724 232.5776 126.8511 14.75580242905064
CUTE-1
1 27844U 03031E   19292.42042356  .00000035  00000-0  35371-4 0  9992
2 27844  98.6854 298.8045 0010533  41.0135 319.1833 14.22200028845735
CUBESAT XI 4
1 27848U 03031J   19292.79945824 +.00000026 +00000-0 +31809-4 0  9990
2 27848 098.6928 299.7029 0010579 050.9681 309.2437 14.21792430845606
MOZHAYETS 4
1 27939U 03042A   19292.90626586 +.00000044 +00000-0 +16568-4 0  9992
2 27939 098.0587 066.4489 0013697 042.0456 318.1793 14.66809902858607
CUBESAT XI 5
1 28895U 05043F   19292.62784353 +.00000125 +00000-0 +32948-4 0  9993
2 28895 097.9773 071.2742 0015963 327.5015 032.5204 14.63700751745237
CUTE-1.7+APD II
1 32785U 08021C   19292.78522765 +.00000182 +00000-0 +25285-4 0  9998
2 32785 097.5567 286.7370 0012218 209.0513 151.0026 14.88359211621920
DELFI C3
1 32789U 08021G   19292.71684187 +.00000668 +00000-0 +48331-4 0  9998
2 32789 097.4516 338.5988 0013604 068.3412 291.9263 15.07182680625390
SEEDS
1 32791U 08021J   19291.79049942 +.00000153 +00000-0 +20816-4 0  9999
2 32791 097.5319 291.8705 0013110 184.5795 175.5306 14.90888564622229
YUBELEINY
1 32953U 08025A   19292.70437895  .00000020  00000-0  75656-4 0  9998
2 32953  82.5013  68.2530 0018974 219.3054 140.6647 12.43091866517595
PRISM (HITOMI)
1 33493U 09002B   19292.60786941 +.00000935 +00000-0 +87124-4 0  9990
2 33493 098.1225 218.2271 0016120 132.6000 227.6583 14.96763775583527
KKS-1 (KISEKI)
1 33499U 09002H   19292.89700452 +.00000075 +00000-0 +19149-4 0  9997
2 33499 098.3404 135.4894 0009309 166.8713 193.2739 14.75470481576963
SWISSCUBE
1 35932U 09051B   19292.17071349 +.00000109 +00000-0 +35652-4 0  9997
2 35932 098.5991 101.8206 0008250 143.7513 216.4244 14.56319127534567
BEESAT
1 35933U 09051C   19292.92208714 +.00000104 +00000-0 +34388-4 0  9999
2 35933 098.6008 104.4041 0006267 151.6659 208.4880 14.56404213534747
ITUPSAT 1
1 35935U 09051E   19292.91351212 +.00000087 +00000-0 +31261-4 0  9999
2 35935 098.6117 104.6235 0008622 151.9928 208.1734 14.55559407534533
XIWANG-1 (HOPE-1)
1 36122U 09072B   19292.78725417 -.00000062 +00000-0 -53188-4 0  9995
2 36122 100.0787 289.4043 0008159 061.4045 298.7891 13.16351424473077
TISAT 1
1 36799U 10035E   19292.88500442 +.00000178 +00000-0 +24010-4 0  9994
2 36799 098.1714 089.2498 0013156 046.6831 313.5480 14.91179507502926
JUGNU
1 37839U 11058B   19291.38027521 +.00000320 +00000-0 +28613-4 0  9994
2 37839 019.9623 316.8402 0018688 228.3681 248.2377 14.12661586414379
SRMSAT
1 37841U 11058D   19291.45749392 +.00000287 +00000-0 +12345-4 0  9999
2 37841 019.9735 015.6627 0011938 093.8976 356.3538 14.10641084413819
M-CUBED/EXP-1 PRIME
1 37855U 11061F   19292.87956264  .00001400  00000-0  77201-4 0  9993
2 37855 101.7176 251.7259 0173001  71.5214 290.4713 15.05656970435312
HORYU 2
1 38340U 12025D   19291.89276553 +.00000141 +00000-0 +28506-4 0  9996
2 38340 098.3169 334.0741 0012791 095.0957 265.1712 14.75760879388774
STRAND 1
1 39090U 13009E   19292.63622586 +.00000004 +00000-0 +16740-4 0  9991
2 39090 098.4760 136.4697 0008105 286.4024 073.6271 14.35100853348004
SOMP
1 39134U 13015E   19292.57087819 +.00000948 +00000-0 +52098-4 0  9997
2 39134 064.8637 342.2657 0037224 283.1720 076.5255 15.20405325358896
BEESAT 3
1 39135U 13015F   19291.65809918 +.00000744 +00000-0 +46211-4 0  9992
2 39135 064.8695 005.2537 0037063 290.8095 068.9062 15.17659589358367
BEESAT 2
1 39136U 13015G   19292.59858430  .00000665  00000-0  43209-4 0  9996
2 39136  64.8702   6.3969 0028862 295.7852  64.0296 15.17078193358812
CUBEBUG 1
1 39153U 13018D   19292.49201742  .00000189  00000-0  31534-4 0  9994
2 39153  97.9812  29.9462 0017554 156.6238 203.5775 14.80609095349988
ZACUBE
1 39417U 13066B   19292.92938635 +.00000197 +00000-0 +31075-4 0  9995
2 39417 097.5626 299.5052 0058708 351.3996 008.6206 14.81163113319281
TRITON 1
1 39427U 13066M   19292.90681170 +.00000183 +00000-0 +36788-4 0  9994
2 39427 097.6920 262.7699 0114805 130.5072 230.6205 14.67891480316228
GOMX 1
1 39430U 13066Q   19292.90853522 +.00000107 +00000-0 +28768-4 0  9995
2 39430 097.7600 241.4279 0149949 225.5241 133.3626 14.59297056314578
HUMSAT D
1 39433U 13066T   19291.92299350 +.00000404 +00000-0 +44640-4 0  9999
2 39433 097.5406 334.3530 0029297 251.7396 108.0635 14.92273104320122
CUBEBUG 2
1 39440U 13066AA  19292.93990987 +.00000220 +00000-0 +37390-4 0  9993
2 39440 097.6105 284.1490 0081295 045.3431 315.4368 14.75900117316952
FUNCUBE 1
1 39444U 13066AE  19292.45644861  .00000242  00000-0  36128-4 0  9993
2 39444  97.5597 301.1194 0057659 346.3083  13.6564 14.81991696318119
UWE-3
1 39446U 13066AG  19292.93592654 +.00000211 +00000-0 +34614-4 0  9994
2 39446 097.5859 291.2870 0070510 019.0746 341.3082 14.78435456316884
SPROUT
1 39770U 14029E   19292.87557805 +.00000633 +00000-0 +75955-4 0  9997
2 39770 097.8894 035.4088 0009723 046.7119 313.4914 14.87462893293146
UNISAT 6
1 40012U 14033C   19292.74954420 +.00000158 +00000-0 +30760-4 0  9990
2 40012 097.7389 153.9500 0059616 061.3817 299.3371 14.74019430286810
DUCHIFAT 1
1 40021U 14033M   19292.85357977 +.00000333 +00000-0 +39768-4 0  9998
2 40021 097.9254 217.8595 0013299 010.5114 349.6379 14.90708254289895
QB50P1
1 40025U 14033R   19292.81401185  .00000250  00000-0  32561-4 0  9991
2 40025  97.9043 212.2856 0012991  20.6268 339.5470 14.89000568289648
CHUBUSAT 1
1 40300U 14070C   19292.79845266  .00000338  00000-0  17634-4 0  9998
2 40300  97.3161   3.8076 0020261 346.8337 150.1116 15.22207278274740
NUDT-PHONESAT
1 40900U 15049B   19292.77211167  .00001613  00000-0  71164-4 0  9991
2 40900  97.4375 300.9254 0014405 110.2802 336.1766 15.23150882226390
ZDPS 2A
1 40901U 15049C   19292.94862539 +.00000552 +00000-0 +30540-4 0  9990
2 40901 097.4622 297.0134 0014613 129.3659 256.7463 15.17877489225933
ZDPS 2B
1 40902U 15049D   19292.92364691 +.00001078 +00000-0 +56608-4 0  9992
2 40902 097.4574 294.3854 0014567 126.2640 273.7077 15.17747472225908
XW-2A
1 40903U 15049E   19292.75913203  .00001548  00000-0  37960-4 0  9995
2 40903  97.3241 336.1507 0015209  62.2314  75.0104 15.42202612229212
KAITUO 1A
1 40904U 15049F   19292.94445167 +.00000504 +00000-0 +30052-4 0  9992
2 40904 097.4712 292.8756 0015705 135.9053 302.9303 15.15466906225666
OBJECT G
1 40905U 15049G   19292.91605473 +.00000426 +00000-0 +26720-4 0  9998
2 40905 097.4767 290.2715 0016831 132.0695 315.3005 15.14366559225529
XW-2C
1 40906U 15049H   19292.92125753 +.00000617 +00000-0 +35713-4 0  9992
2 40906 097.4714 292.9907 0015851 127.2578 320.0858 15.15786645225668
XW-2D
1 40907U 15049J   19292.81564671  .00000443  00000-0  26478-4 0  9992
2 40907  97.4697 292.5683 0015182 124.2579 314.0640 15.15982031225660
LILACSAT 2
1 40908U 15049K   19292.86817036 +.00000503 +00000-0 +31362-4 0  9999
2 40908 097.4834 291.3079 0016865 132.2737 312.2762 15.13870011225447
XW-2F
1 40910U 15049M   19292.85886705 +.00000918 +00000-0 +49084-4 0  9990
2 40910 097.4656 294.7997 0016109 117.5253 329.1390 15.17473757225699
XW-2B
1 40911U 15049N   19292.92172421 +.00000649 +00000-0 +37267-4 0  9993
2 40911 097.4714 293.3427 0015193 125.4340 322.0328 15.15912751225575
KAITUO 1B
1 40912U 15049P   19292.95429317 +.00000819 +00000-0 +41343-4 0  9995
2 40912 097.4506 298.7301 0016542 100.5915 285.7539 15.19806038226031
TIANWANG 1C (TW-1C)
1 40926U 15051B   19292.80839624  .00012082  00000-0  16194-3 0  9993
2 40926  97.1214 338.9097 0005457 276.6601 174.0597 15.58101772229312
TIANWANG 1B (TW-1B)
1 40927U 15051C   19292.89641384 +.00011164 +00000-0 +15973-3 0  9991
2 40927 097.1242 338.1145 0005665 288.6322 158.3841 15.56357425229160
